Location: Mentone
(34.5413°N, 85.5351°W)
Time: 03:31:50
(UTC-05:00)

A-11 Canister half - Visible Passes

Search period start: 26 October 2014 00:00
Search period end: 04 November 2014 23:00
Orbit: 1525 x 1685 km, 47.3° (Epoch: 25 October)

Date Brightness Start Highest point End Pass type
(mag) Time Alt. Az. Time Alt. Az. Time Alt. Az.
26 Oct 11.1 18:34:01 10° WNW 18:41:12 26° SW 18:48:31 10° S visible
27 Oct 11.1 18:12:20 10° WNW 18:19:44 28° SW 18:27:15 10° S visible
31 Oct 11.2 06:18:26 10° S 06:26:04 26° SE 06:33:29 10° ENE visible
01 Nov 11.2 05:57:11 10° S 06:04:35 24° SE 06:11:47 10° ENE visible
02 Nov 11.2 04:35:58 10° S 04:43:06 23° SE 04:50:03 10° E visible
03 Nov 11.2 04:14:47 10° S 04:21:37 21° SE 04:28:18 10° E visible
04 Nov 11.2 03:53:37 10° SSE 04:00:08 20° SE 04:06:31 10° E visible
